When you browse on this site, cookies collect data to enhance your experience and personalize the content and advertising you see.
Visit our Privacy Policy to learn more. By continuing to use the site, you agree to this use of cookies and data.
  • en France
  • Liste des pays
  • À 7 jours
  • Température de l'eau
  • Carte satellitaire
  • Carte météo
  • Widgets météo
  • user-avatar
    Se connecter

    Météo par heure à Encamp

    Ce jour, 22 Janvier, Mardi

    Heure Température Précipitation Vent Pression Humidité
    00:00 -10°C° 0 mm 2 m/s 617 mmHg 78%
    01:00 -10°C° 0 mm 2 m/s 617 mmHg 73%
    02:00 -10°C° 0 mm 2 m/s 617 mmHg 68%
    03:00 -10°C° 0 mm 2 m/s 616 mmHg 63%
    04:00 -10°C° 0 mm 2 m/s 616 mmHg 60%
    05:00 -12°C° 0 mm 2 m/s 616 mmHg 56%
    06:00 -12°C° 0 mm 2 m/s 615 mmHg 52%
    07:00 -9°C° 0 mm 2 m/s 616 mmHg 49%
    08:00 -8°C° 0 mm 2 m/s 616 mmHg 47%
    09:00 -6°C° 0 mm 2 m/s 616 mmHg 45%
    10:00 -2°C° 0 mm 1 m/s 616 mmHg 41%
    11:00 -1°C° 0 mm 1 m/s 617 mmHg 37%
    12:00 +1°C° 0 mm 1 m/s 617 mmHg 33%
    13:00 +1°C° 0.1 mm 1 m/s 616 mmHg 41%
    14:00 0°C° 0.1 mm 1 m/s 615 mmHg 48%
    15:00 0°C° 0.1 mm 1 m/s 614 mmHg 56%
    16:00 -3°C° 0.6 mm 2 m/s 614 mmHg 65%
    17:00 -5°C° 0.6 mm 3 m/s 613 mmHg 74%
    18:00 -5°C° 0.6 mm 3 m/s 613 mmHg 83%
    19:00 -7°C° 0 mm 3 m/s 612 mmHg 85%
    20:00 -7°C° 0 mm 2 m/s 612 mmHg 86%
    21:00 -8°C° 0 mm 2 m/s 611 mmHg 88%
    22:00 -8°C° 0.1 mm 2 m/s 611 mmHg 88%
    23:00 -7°C° 0.1 mm 2 m/s 611 mmHg 88%

    Demain, 23 Janvier, Mercredi

    Heure Température Précipitation Vent Pression Humidité
    00:00 -6°C° 0.1 mm 1 m/s 611 mmHg 88%
    01:00 -6°C° 0.5 mm 2 m/s 611 mmHg 87%
    02:00 -6°C° 0.5 mm 2 m/s 611 mmHg 87%
    03:00 -5°C° 0.5 mm 2 m/s 611 mmHg 87%
    04:00 -3°C° 0.5 mm 1 m/s 610 mmHg 88%
    05:00 -3°C° 0.5 mm 1 m/s 609 mmHg 89%
    06:00 -3°C° 0.5 mm 1 m/s 608 mmHg 90%
    07:00 -3°C° 1.5 mm 1 m/s 608 mmHg 91%
    08:00 -3°C° 1.5 mm 1 m/s 607 mmHg 93%
    09:00 -3°C° 1.5 mm 1 m/s 607 mmHg 94%
    10:00 -6°C° 1.8 mm 3 m/s 607 mmHg 93%
    11:00 -7°C° 1.8 mm 4 m/s 607 mmHg 92%
    12:00 -8°C° 1.8 mm 6 m/s 607 mmHg 91%
    13:00 -7°C° 1.3 mm 5 m/s 607 mmHg 91%
    14:00 -7°C° 1.3 mm 5 m/s 607 mmHg 91%
    15:00 -7°C° 1.3 mm 5 m/s 607 mmHg 91%
    16:00 -9°C° 1.5 mm 6 m/s 607 mmHg 92%
    17:00 -11°C° 1.5 mm 7 m/s 607 mmHg 93%
    18:00 -12°C° 1.5 mm 8 m/s 607 mmHg 95%
    19:00 -12°C° 0.9 mm 7 m/s 608 mmHg 95%
    20:00 -13°C° 0.9 mm 7 m/s 608 mmHg 94%
    21:00 -13°C° 0.9 mm 7 m/s 608 mmHg 94%
    22:00 -14°C° 0.4 mm 7 m/s 608 mmHg 93%
    23:00 -14°C° 0.4 mm 7 m/s 608 mmHg 92%

    Après-demain, 24 Janvier, Jeudi

    Heure Température Précipitation Vent Pression Humidité
    00:00 -14°C° 0.4 mm 7 m/s 608 mmHg 91%
    01:00 -14°C° 0.8 mm 7 m/s 609 mmHg 92%
    02:00 -14°C° 0.8 mm 7 m/s 609 mmHg 92%
    03:00 -15°C° 0.8 mm 8 m/s 609 mmHg 92%
    04:00 -15°C° 0.5 mm 7 m/s 610 mmHg 92%
    05:00 -15°C° 0.5 mm 7 m/s 610 mmHg 92%
    06:00 -15°C° 0.5 mm 7 m/s 610 mmHg 92%
    07:00 -15°C° 0.3 mm 6 m/s 611 mmHg 91%
    08:00 -15°C° 0.3 mm 6 m/s 611 mmHg 89%
    09:00 -14°C° 0.3 mm 6 m/s 612 mmHg 88%
    10:00 -14°C° 0.1 mm 6 m/s 612 mmHg 85%
    11:00 -12°C° 0.1 mm 6 m/s 613 mmHg 83%
    12:00 -12°C° 0.1 mm 6 m/s 613 mmHg 80%
    13:00 -12°C° 0 mm 6 m/s 613 mmHg 81%
    14:00 -12°C° 0 mm 6 m/s 613 mmHg 83%
    15:00 -12°C° 0 mm 6 m/s 613 mmHg 84%
    16:00 -12°C° 0.1 mm 6 m/s 614 mmHg 86%
    17:00 -13°C° 0.1 mm 5 m/s 614 mmHg 87%
    18:00 -13°C° 0.1 mm 5 m/s 614 mmHg 89%
    19:00 -13°C° 0.1 mm 5 m/s 615 mmHg 89%
    20:00 -13°C° 0.1 mm 5 m/s 615 mmHg 88%
    21:00 -12°C° 0.1 mm 4 m/s 616 mmHg 88%
    22:00 -14°C° 0 mm 4 m/s 616 mmHg 87%
    23:00 -15°C° 0 mm 4 m/s 615 mmHg 86%

    25 Janvier, Vendredi

    Heure Température Précipitation Vent Pression Humidité
    00:00 -15°C° 0 mm 4 m/s 615 mmHg 85%
    01:00 -16°C° 0 mm 4 m/s 615 mmHg 80%
    02:00 -16°C° 0 mm 4 m/s 615 mmHg 75%
    03:00 -16°C° 0 mm 4 m/s 615 mmHg 70%
    04:00 -15°C° 0 mm 4 m/s 615 mmHg 68%
    05:00 -15°C° 0 mm 4 m/s 616 mmHg 66%
    06:00 -14°C° 0 mm 4 m/s 616 mmHg 63%
    07:00 -11°C° 0 mm 4 m/s 617 mmHg 66%
    08:00 -10°C° 0 mm 4 m/s 618 mmHg 69%
    09:00 -8°C° 0 mm 4 m/s 619 mmHg 72%
    10:00 -6°C° 0 mm 5 m/s 620 mmHg 76%
    11:00 -5°C° 0 mm 5 m/s 620 mmHg 80%
    12:00 -2°C° 0 mm 5 m/s 621 mmHg 84%
    13:00 -2°C° 0 mm 5 m/s 621 mmHg 86%
    14:00 -2°C° 0 mm 4 m/s 620 mmHg 87%
    15:00 -2°C° 0 mm 4 m/s 620 mmHg 89%
    16:00 -2°C° 0 mm 4 m/s 620 mmHg 90%
    17:00 -3°C° 0 mm 4 m/s 620 mmHg 91%
    18:00 -3°C° 0 mm 4 m/s 620 mmHg 92%
    19:00 -3°C° 0 mm 4 m/s 620 mmHg 92%
    20:00 -3°C° 0 mm 4 m/s 620 mmHg 92%
    21:00 -2°C° 0 mm 3 m/s 620 mmHg 92%
    22:00 -4°C° 0 mm 3 m/s 620 mmHg 92%
    23:00 -4°C° 0 mm 3 m/s 620 mmHg 92%

    26 Janvier, Samedi

    Heure Température Précipitation Vent Pression Humidité
    00:00 -5°C° 0 mm 3 m/s 619 mmHg 93%
    01:00 -4°C° 0 mm 2 m/s 619 mmHg 92%
    02:00 -5°C° 0 mm 2 m/s 618 mmHg 92%
    03:00 -5°C° 0 mm 2 m/s 618 mmHg 92%
    04:00 -6°C° 0 mm 2 m/s 618 mmHg 91%
    05:00 -6°C° 0 mm 2 m/s 617 mmHg 90%
    06:00 -6°C° 0 mm 2 m/s 617 mmHg 89%
    07:00 -5°C° 0 mm 2 m/s 617 mmHg 88%
    08:00 -3°C° 0 mm 2 m/s 618 mmHg 86%
    09:00 0°C° 0 mm 1 m/s 618 mmHg 84%
    10:00 +1°C° 0 mm 1 m/s 618 mmHg 86%
    11:00 +2°C° 0 mm 1 m/s 618 mmHg 87%
    12:00 +3°C° 0 mm 1 m/s 618 mmHg 89%
    13:00 +3°C° 0 mm 1 m/s 617 mmHg 90%
    14:00 +3°C° 0 mm 1 m/s 616 mmHg 92%
    15:00 +2°C° 0 mm 1 m/s 615 mmHg 93%
    16:00 -1°C° 0.6 mm 2 m/s 615 mmHg 94%
    17:00 -1°C° 0.6 mm 3 m/s 615 mmHg 94%
    18:00 -3°C° 0.6 mm 4 m/s 615 mmHg 94%
    19:00 -5°C° 0.2 mm 3 m/s 614 mmHg 93%
    20:00 -6°C° 0.2 mm 3 m/s 614 mmHg 93%
    21:00 -7°C° 0.2 mm 3 m/s 613 mmHg 92%
    22:00 -7°C° 0.4 mm 3 m/s 613 mmHg 92%
    23:00 -7°C° 0.4 mm 3 m/s 613 mmHg 92%

    27 Janvier, Dimanche

    Heure Température Précipitation Vent Pression Humidité
    00:00 -7°C° 0.4 mm 3 m/s 613 mmHg 93%
    01:00 -8°C° 0.8 mm 4 m/s 613 mmHg 94%
    02:00 -8°C° 0.8 mm 4 m/s 613 mmHg 95%
    03:00 -9°C° 0.8 mm 4 m/s 613 mmHg 96%
    04:00 -10°C° 0.6 mm 5 m/s 613 mmHg 95%
    05:00 -10°C° 0.6 mm 5 m/s 613 mmHg 93%
    06:00 -11°C° 0.6 mm 6 m/s 613 mmHg 92%
    07:00 -10°C° 0.5 mm 6 m/s 613 mmHg 91%
    08:00 -10°C° 0.5 mm 5 m/s 614 mmHg 91%
    09:00 -10°C° 0.5 mm 5 m/s 614 mmHg 90%
    10:00 -8°C° 0.5 mm 5 m/s 614 mmHg 89%
    11:00 -8°C° 0.5 mm 5 m/s 614 mmHg 87%
    12:00 -7°C° 0.5 mm 5 m/s 614 mmHg 86%
    13:00 -7°C° 0.7 mm 5 m/s 613 mmHg 87%
    14:00 -7°C° 0.7 mm 5 m/s 613 mmHg 88%
    15:00 -7°C° 0.7 mm 4 m/s 612 mmHg 89%
    16:00 -8°C° 1 mm 4 m/s 612 mmHg 91%
    17:00 -7°C° 1 mm 3 m/s 612 mmHg 93%
    18:00 -6°C° 1 mm 2 m/s 611 mmHg 94%
    19:00 -6°C° 0.9 mm 2 m/s 611 mmHg 94%
    20:00 -8°C° 0.9 mm 3 m/s 611 mmHg 94%
    21:00 -8°C° 0.9 mm 3 m/s 612 mmHg 94%
    22:00 -9°C° 0.3 mm 3 m/s 611 mmHg 93%
    23:00 -9°C° 0.3 mm 3 m/s 611 mmHg 93%
    Voir plus